| time (UTC) | temp F | wind direction | speed knots | gust knots | rain 1hr in | rain 24hr in | rain mn in | humidity % | barometer mb |
| 20260505230018 | 78 | 235 | 2.6 | 12.2 | 0.00 | 0.00 | 0.00 | 41 | 1009.1 |
| 20260505224534 | 79 | 209 | 3.5 | 15.6 | 0.00 | 0.00 | 0.00 | 38 | 1009.0 |
| 20260505223036 | 80 | 194 | 5.2 | 17.4 | 0.00 | 0.00 | 0.00 | 36 | 1008.9 |
| 20260505221520 | 80 | 262 | 7.0 | 14.8 | 0.00 | 0.00 | 0.00 | 34 | 1008.7 |
| 20260505214546 | 80 | 271 | 5.2 | 16.5 | 0.00 | 0.00 | 0.00 | 34 | 1008.7 |
| 20260505213004 | 81 | 229 | 3.5 | 15.6 | 0.00 | 0.00 | 0.00 | 33 | 1008.7 |
| 20260505211503 | 82 | 225 | 4.3 | 15.6 | 0.00 | 0.00 | 0.00 | 32 | 1008.9 |
| 20260505210006 | 82 | 214 | 5.2 | 18.2 | 0.00 | 0.00 | 0.00 | 31 | 1008.6 |
| 20260505204510 | 82 | 272 | 9.6 | 20.9 | 0.00 | 0.00 | 0.00 | 30 | 1008.6 |
| 20260505203003 | 83 | 269 | 4.3 | 13.0 | 0.00 | 0.00 | 0.00 | 31 | 1008.5 |
| 20260505201504 | 82 | 268 | 7.0 | 20.0 | 0.00 | 0.00 | 0.00 | 34 | 1008.6 |
| 20260505200006 | 82 | 211 | 7.0 | 14.8 | 0.00 | 0.00 | 0.00 | 35 | 1008.6 |
| 20260505194504 | 82 | 211 | 9.6 | 25.2 | 0.00 | 0.00 | 0.00 | 35 | 1008.9 |
| 20260505193012 | 82 | 168 | 7.8 | 20.0 | 0.00 | 0.00 | 0.00 | 35 | 1009.0 |
| 20260505191504 | 82 | 282 | 5.2 | 14.8 | 0.00 | 0.00 | 0.00 | 37 | 1009.0 |
| 20260505183010 | 81 | 240 | 3.5 | 13.9 | 0.00 | 0.00 | 0.00 | 40 | 1009.7 |
| 20260505181510 | 80 | 254 | 8.7 | 17.4 | 0.00 | 0.00 | 0.00 | 41 | 1009.8 |
| 20260505180004 | 80 | 222 | 5.2 | 15.6 | 0.00 | 0.00 | 0.00 | 41 | 1010.2 |
| 20260505174505 | 81 | 167 | 5.2 | 10.4 | 0.00 | 0.00 | 0.00 | 41 | 1010.3 |
| 20260505171523 | 80 | 252 | 3.5 | 7.0 | 0.00 | 0.00 | 0.00 | 44 | 1010.5 |
| 20260505170011 | 79 | 272 | 2.6 | 7.8 | 0.00 | 0.00 | 0.00 | 45 | 1010.6 |
| 20260505164509 | 79 | 209 | 2.6 | 11.3 | 0.00 | 0.00 | 0.00 | 49 | 1010.6 |
| 20260505153006 | 77 | 245 | 4.3 | 8.7 | 0.00 | 0.00 | 0.00 | 46 | 1011.1 |
| 20260505151508 | 76 | 213 | 3.5 | 7.0 | 0.00 | 0.00 | 0.00 | 47 | 1011.1 |
| 20260505124515 | 67 | 277 | 2.6 | 8.7 | 0.00 | 0.00 | 0.00 | 60 | 1011.8 |
| 20260505123010 | 66 | 197 | 1.7 | 6.1 | 0.00 | 0.00 | 0.00 | 62 | 1011.6 |
| 20260505121512 | 65 | 263 | 3.5 | 10.4 | 0.00 | 0.00 | 0.00 | 64 | 1011.6 |
| 20260505120010 | 65 | 175 | 0.9 | 7.0 | 0.00 | 0.00 | 0.00 | 65 | 1011.6 |
| 20260505114510 | 64 | 273 | 0.9 | 7.0 | 0.00 | 0.00 | 0.00 | 67 | 1011.5 |
| 20260505113015 | 63 | 229 | 0.9 | 4.3 | 0.00 | 0.00 | 0.00 | 68 | 1011.3 |
| 20260505111518 | 62 | 194 | 0.0 | 2.6 | 0.00 | 0.00 | 0.00 | 70 | 1011.2 |
| 20260505101519 | 59 | 267 | 0.0 | 3.5 | 0.00 | 0.00 | 0.00 | 73 | 1011.1 |
| 20260505100016 | 59 | 270 | 0.9 | 5.2 | 0.00 | 0.00 | 0.00 | 74 | 1010.9 |
| 20260505094516 | 59 | 269 | 1.7 | 5.2 | 0.00 | 0.00 | 0.00 | 75 | 1010.7 |
| 20260505093018 | 58 | 211 | 0.0 | 2.6 | 0.00 | 0.00 | 0.00 | 75 | 1010.7 |
| 20260505090009 | 58 | 179 | 0.9 | 3.5 | 0.00 | 0.00 | 0.00 | 75 | 1010.6 |
| 20260505084514 | 59 | 268 | 0.0 | 3.5 | 0.00 | 0.00 | 0.00 | 73 | 1010.7 |
| 20260505083017 | 59 | 264 | 0.9 | 3.5 | 0.00 | 0.00 | 0.00 | 72 | 1010.6 |
| 20260505081505 | 60 | 233 | 0.0 | 2.6 | 0.00 | 0.00 | 0.00 | 71 | 1010.7 |
| 20260505080008 | 60 | 256 | 0.9 | 6.1 | 0.00 | 0.00 | 0.00 | 71 | 1010.8 |
| 20260505074514 | 60 | 256 | 1.7 | 6.1 | 0.00 | 0.00 | 0.00 | 71 | 1010.8 |
| 20260505073020 | 60 | 268 | 0.9 | 11.3 | 0.00 | 0.00 | 0.00 | 70 | 1010.7 |
| 20260505071505 | 60 | 277 | 0.9 | 6.1 | 0.00 | 0.00 | 0.00 | 69 | 1010.7 |
| 20260505070016 | 60 | 246 | 1.7 | 6.1 | 0.00 | 0.00 | 0.00 | 70 | 1010.6 |
| 20260505064515 | 59 | 269 | 0.9 | 6.1 | 0.00 | 0.00 | 0.00 | 71 | 1010.5 |
| 20260505063017 | 58 | 266 | 1.7 | 3.5 | 0.00 | 0.00 | 0.00 | 71 | 1010.4 |
| 20260505061515 | 58 | 232 | 0.0 | 3.5 | 0.00 | 0.00 | 0.00 | 70 | 1010.6 |
| 20260505060017 | 59 | 261 | 0.0 | 1.7 | 0.00 | 0.00 | 0.00 | 69 | 1010.6 |
| 20260505054523 | 59 | 261 | 0.0 | 3.5 | 0.00 | 0.00 | 0.00 | 69 | 1010.7 |
| 20260505053022 | 59 | 221 | 0.0 | 1.7 | 0.00 | 0.00 | 0.00 | 69 | 1010.6 |
| 20260505051512 | 59 | 241 | 0.0 | 3.5 | 0.00 | 0.00 | 0.00 | 69 | 1010.8 |
| 20260505040019 | 60 | 203 | 0.9 | 4.3 | 0.00 | 0.00 | 0.00 | 61 | 1010.7 |
| 20260505030021 | 62 | 162 | 0.9 | 3.5 | 0.00 | 0.00 | 0.00 | 53 | 1011.0 |
| 20260505024526 | 62 | 171 | 0.9 | 4.3 | 0.00 | 0.00 | 0.00 | 52 | 1011.1 |
| 20260505023007 | 63 | 153 | 1.7 | 4.3 | 0.00 | 0.00 | 0.00 | 51 | 1011.2 |
| 20260505021514 | 64 | 148 | 0.9 | 5.2 | 0.00 | 0.00 | 0.00 | 50 | 1011.2 |
| 20260505020021 | 64 | 179 | 0.9 | 1.7 | 0.00 | 0.00 | 0.00 | 49 | 1011.0 |
| 20260505014526 | 65 | 184 | 0.0 | 2.6 | 0.00 | 0.00 | 0.00 | 48 | 1011.0 |
| 20260505013011 | 65 | 202 | 0.0 | 7.0 | 0.00 | 0.00 | 0.00 | 48 | 1011.1 |
| 20260505011524 | 65 | 195 | 0.0 | 4.3 | 0.00 | 0.00 | 0.00 | 48 | 1010.8 |
| 20260505010023 | 65 | 208 | 0.0 | 2.6 | 0.00 | 0.00 | 0.00 | 46 | 1010.7 |
| 20260505004533 | 66 | 191 | 0.0 | 0.0 | 0.00 | 0.00 | 0.00 | 45 | 1010.6 |
| 20260505003013 | 67 | 191 | 0.0 | 2.6 | 0.00 | 0.00 | 0.00 | 43 | 1010.4 |
| 20260505001520 | 67 | 232 | 0.9 | 3.5 | 0.00 | 0.00 | 0.00 | 42 | 1010.3 |
| 20260505000030 | 68 | 208 | 1.7 | 7.0 | 0.00 | 0.00 | 0.00 | 40 | 1010.3 |
| 20260504234522 | 69 | 243 | 1.7 | 7.0 | 0.00 | 0.00 | 0.00 | 39 | 1010.1 |
| 20260504233016 | 69 | 215 | 1.7 | 7.0 | 0.00 | 0.00 | 0.00 | 38 | 1010.0 |
| 20260504231524 | 69 | 238 | 2.6 | 12.2 | 0.00 | 0.00 | 0.00 | 38 | 1009.9 |